| time (UTC) | temp C | wind direction | speed KPH | gust KPH | rain 1hr cm | rain 24hr cm | rain mn cm | humidity % | barometer mb |
| 20260502152022 | 14 | 239 | 9.7 | 16.1 | 0.00 | 0.00 | 0.00 | 45 | 937.4 |
| 20260502151047 | 13 | 254 | 11.3 | 17.7 | 0.00 | 0.00 | 0.00 | 44 | 937.5 |
| 20260502123021 | 7 | 225 | 9.7 | 16.1 | 0.00 | 0.00 | 0.00 | 55 | 939.4 |
| 20260502122045 | 7 | 247 | 12.9 | 22.5 | 0.00 | 0.00 | 0.00 | 55 | 939.5 |
| 20260502121118 | 7 | 209 | 14.5 | 29.0 | 0.00 | 0.00 | 0.00 | 54 | 939.2 |
| 20260502115023 | 7 | 216 | 14.5 | 22.5 | 0.00 | 0.00 | 0.00 | 54 | 939.1 |
| 20260502114049 | 7 | 228 | 12.9 | 22.5 | 0.00 | 0.00 | 0.00 | 54 | 939.3 |
| 20260502113100 | 6 | 221 | 12.9 | 29.0 | 0.00 | 0.00 | 0.00 | 55 | 939.6 |
| 20260502112033 | 6 | 233 | 11.3 | 19.3 | 0.00 | 0.00 | 0.00 | 56 | 939.6 |
| 20260502111025 | 6 | 218 | 8.0 | 17.7 | 0.00 | 0.00 | 0.00 | 57 | 939.8 |
| 20260502110018 | 6 | 238 | 8.0 | 12.9 | 0.00 | 0.00 | 0.00 | 57 | 940.1 |
| 20260502105042 | 6 | 256 | 6.4 | 8.0 | 0.00 | 0.00 | 0.00 | 58 | 940.1 |
| 20260502104033 | 6 | 242 | 8.0 | 16.1 | 0.00 | 0.00 | 0.00 | 58 | 940.0 |
| 20260502103047 | 6 | 235 | 11.3 | 19.3 | 0.00 | 0.00 | 0.00 | 58 | 940.0 |
| 20260502102018 | 6 | 238 | 14.5 | 25.7 | 0.00 | 0.00 | 0.00 | 56 | 939.9 |
| 20260502101103 | 6 | 228 | 14.5 | 25.7 | 0.00 | 0.00 | 0.00 | 56 | 939.9 |
| 20260502091030 | 7 | 215 | 12.9 | 29.0 | 0.00 | 0.00 | 0.00 | 55 | 940.4 |
| 20260502071035 | 7 | 217 | 14.5 | 24.1 | 0.00 | 0.00 | 0.00 | 52 | 941.5 |
| 20260502070028 | 8 | 224 | 11.3 | 19.3 | 0.00 | 0.00 | 0.00 | 51 | 941.6 |
| 20260502065019 | 8 | 221 | 12.9 | 22.5 | 0.00 | 0.00 | 0.00 | 50 | 941.7 |
| 20260502064045 | 8 | 204 | 9.7 | 22.5 | 0.00 | 0.00 | 0.00 | 51 | 941.7 |
| 20260502063036 | 8 | 223 | 11.3 | 22.5 | 0.00 | 0.00 | 0.00 | 49 | 941.6 |
| 20260502062030 | 9 | 219 | 12.9 | 25.7 | 0.00 | 0.00 | 0.00 | 48 | 941.8 |
| 20260502061021 | 8 | 231 | 14.5 | 24.1 | 0.00 | 0.00 | 0.00 | 48 | 941.9 |
| 20260502060106 | 8 | 234 | 14.5 | 25.7 | 0.00 | 0.00 | 0.00 | 49 | 941.9 |
| 20260502055038 | 8 | 221 | 12.9 | 24.1 | 0.00 | 0.00 | 0.00 | 49 | 942.0 |
| 20260502054031 | 8 | 206 | 11.3 | 25.7 | 0.00 | 0.00 | 0.00 | 48 | 942.0 |
| 20260502053023 | 8 | 217 | 9.7 | 19.3 | 0.00 | 0.00 | 0.00 | 50 | 942.0 |
| 20260502052048 | 8 | 211 | 11.3 | 19.3 | 0.00 | 0.00 | 0.00 | 51 | 942.1 |
| 20260502051039 | 8 | 207 | 11.3 | 17.7 | 0.00 | 0.00 | 0.00 | 51 | 942.2 |
| 20260502050033 | 8 | 195 | 6.4 | 12.9 | 0.00 | 0.00 | 0.00 | 54 | 942.1 |
| 20260502045024 | 7 | 179 | 4.8 | 11.3 | 0.00 | 0.00 | 0.00 | 54 | 942.2 |
| 20260502044017 | 7 | 194 | 6.4 | 16.1 | 0.00 | 0.00 | 0.00 | 52 | 942.2 |
| 20260502043041 | 8 | 191 | 4.8 | 8.0 | 0.00 | 0.00 | 0.00 | 52 | 942.3 |
| 20260502042034 | 7 | 166 | 4.8 | 6.4 | 0.00 | 0.00 | 0.00 | 56 | 942.4 |
| 20260502041048 | 7 | 158 | 3.2 | 6.4 | 0.00 | 0.00 | 0.00 | 54 | 942.5 |
| 20260502040039 | 8 | 161 | 3.2 | 6.4 | 0.00 | 0.00 | 0.00 | 53 | 942.5 |
| 20260502035043 | 9 | 166 | 3.2 | 6.4 | 0.00 | 0.00 | 0.00 | 48 | 942.6 |
| 20260502034036 | 8 | 171 | 3.2 | 8.0 | 0.00 | 0.00 | 0.00 | 48 | 942.6 |
| 20260502033028 | 9 | 174 | 3.2 | 6.4 | 0.00 | 0.00 | 0.00 | 48 | 942.6 |
| 20260502032041 | 9 | 136 | 1.6 | 4.8 | 0.00 | 0.00 | 0.00 | 49 | 942.5 |
| 20260502031044 | 10 | 155 | 3.2 | 6.4 | 0.00 | 0.00 | 0.00 | 48 | 942.4 |
| 20260502030038 | 9 | 164 | 3.2 | 6.4 | 0.00 | 0.00 | 0.00 | 51 | 942.4 |
| 20260502025029 | 10 | 156 | 0.0 | 1.6 | 0.00 | 0.00 | 0.00 | 52 | 942.4 |
| 20260502024023 | 10 | 160 | 1.6 | 4.8 | 0.00 | 0.00 | 0.00 | 45 | 942.4 |
| 20260502023106 | 10 | 142 | 3.2 | 4.8 | 0.00 | 0.00 | 0.00 | 46 | 942.4 |
| 20260502022059 | 10 | 156 | 0.0 | 4.8 | 0.00 | 0.00 | 0.00 | 46 | 942.3 |
| 20260502021031 | 11 | 157 | 1.6 | 4.8 | 0.00 | 0.00 | 0.00 | 44 | 942.3 |
| 20260502020024 | 12 | 154 | 0.0 | 4.8 | 0.00 | 0.00 | 0.00 | 41 | 942.3 |
| 20260502015016 | 13 | 155 | 0.0 | 1.6 | 0.00 | 0.00 | 0.00 | 38 | 942.4 |
| 20260502014041 | 13 | 169 | 1.6 | 4.8 | 0.00 | 0.00 | 0.00 | 36 | 942.4 |
| 20260502013033 | 15 | 164 | 1.6 | 4.8 | 0.00 | 0.00 | 0.00 | 36 | 942.5 |
| 20260502012026 | 16 | 164 | 1.6 | 4.8 | 0.00 | 0.00 | 0.00 | 32 | 942.5 |
| 20260502011037 | 16 | 159 | 1.6 | 1.6 | 0.00 | 0.00 | 0.00 | 30 | 942.4 |
| 20260502010042 | 16 | 158 | 0.0 | 1.6 | 0.00 | 0.00 | 0.00 | 30 | 942.4 |
| 20260502005054 | 17 | 165 | 1.6 | 1.6 | 0.00 | 0.00 | 0.00 | 30 | 942.5 |
| 20260502004027 | 16 | 172 | 3.2 | 6.4 | 0.00 | 0.00 | 0.00 | 30 | 942.4 |
| 20260502003019 | 16 | 228 | 8.0 | 11.3 | 0.00 | 0.00 | 0.00 | 36 | 942.5 |
| 20260502002104 | 17 | 31 | 3.2 | 12.9 | 0.00 | 0.00 | 0.00 | 29 | 942.6 |
| 20260502001036 | 17 | 203 | 4.8 | 22.5 | 0.00 | 0.00 | 0.00 | 29 | 942.7 |
| 20260502000029 | 16 | 238 | 6.4 | 8.0 | 0.00 | 0.00 | 0.00 | 28 | 942.7 |
| 20260501235020 | 16 | 75 | 6.4 | 12.9 | 0.00 | 0.00 | 0.00 | 28 | 942.7 |
| 20260501234046 | 17 | 323 | 8.0 | 22.5 | 0.00 | 0.00 | 0.00 | 30 | 942.7 |
| 20260501233058 | 17 | 157 | 6.4 | 11.3 | 0.00 | 0.00 | 0.00 | 28 | 942.8 |
| 20260501232031 | 17 | 149 | 3.2 | 6.4 | 0.00 | 0.00 | 0.00 | 28 | 942.7 |
| 20260501231022 | 17 | 155 | 1.6 | 4.8 | 0.00 | 0.00 | 0.00 | 30 | 942.8 |
| 20260501230048 | 16 | 45 | 8.0 | 16.1 | 0.00 | 0.00 | 0.00 | 31 | 942.7 |
| 20260501225039 | 16 | 115 | 6.4 | 16.1 | 0.00 | 0.00 | 0.00 | 32 | 942.7 |
| 20260501224033 | 16 | 109 | 6.4 | 19.3 | 0.00 | 0.00 | 0.00 | 34 | 942.7 |
| 20260501223044 | 17 | 122 | 4.8 | 11.3 | 0.00 | 0.00 | 0.00 | 32 | 942.7 |
| 20260501222017 | 16 | 122 | 3.2 | 6.4 | 0.00 | 0.00 | 0.00 | 33 | 942.9 |
| 20260501221041 | 16 | 80 | 3.2 | 8.0 | 0.00 | 0.00 | 0.00 | 31 | 942.9 |
| 20260501220034 | 17 | 127 | 4.8 | 8.0 | 0.00 | 0.00 | 0.00 | 30 | 942.9 |
| 20260501215026 | 17 | 172 | 4.8 | 8.0 | 0.00 | 0.00 | 0.00 | 32 | 943.1 |
| 20260501214019 | 16 | 241 | 6.4 | 12.9 | 0.00 | 0.00 | 0.00 | 32 | 943.0 |
| 20260501213042 | 16 | 84 | 8.0 | 16.1 | 0.00 | 0.00 | 0.00 | 32 | 943.1 |
| 20260501212036 | 15 | 66 | 8.0 | 17.7 | 0.00 | 0.00 | 0.00 | 33 | 943.2 |
| 20260501211027 | 15 | 92 | 6.4 | 16.1 | 0.00 | 0.00 | 0.00 | 33 | 943.2 |
| 20260501210021 | 15 | 103 | 4.8 | 12.9 | 0.00 | 0.00 | 0.00 | 33 | 943.4 |
| 20260501205046 | 15 | 71 | 6.4 | 16.1 | 0.00 | 0.00 | 0.00 | 33 | 943.5 |
| 20260501204037 | 15 | 82 | 6.4 | 12.9 | 0.00 | 0.00 | 0.00 | 35 | 943.5 |
| 20260501203029 | 15 | 355 | 6.4 | 12.9 | 0.00 | 0.00 | 0.00 | 34 | 943.6 |
| 20260501202022 | 15 | 24 | 11.3 | 19.3 | 0.00 | 0.00 | 0.00 | 33 | 943.6 |
| 20260501201046 | 15 | 110 | 3.2 | 8.0 | 0.00 | 0.00 | 0.00 | 34 | 943.6 |
| 20260501200039 | 15 | 71 | 8.0 | 19.3 | 0.00 | 0.00 | 0.00 | 34 | 943.8 |
| 20260501195030 | 15 | 13 | 12.9 | 19.3 | 0.00 | 0.00 | 0.00 | 34 | 943.7 |
| 20260501194024 | 16 | 146 | 3.2 | 6.4 | 0.00 | 0.00 | 0.00 | 34 | 943.6 |
| 20260501193047 | 15 | 106 | 9.7 | 24.1 | 0.00 | 0.00 | 0.00 | 34 | 943.8 |
| 20260501192041 | 15 | 45 | 8.0 | 24.1 | 0.00 | 0.00 | 0.00 | 35 | 943.8 |
| 20260501191112 | 14 | 179 | 3.2 | 11.3 | 0.00 | 0.00 | 0.00 | 36 | 943.8 |
| 20260501190026 | 15 | 92 | 4.8 | 8.0 | 0.00 | 0.00 | 0.00 | 35 | 943.8 |
| 20260501185017 | 13 | 78 | 4.8 | 12.9 | 0.00 | 0.00 | 0.00 | 36 | 944.0 |
| 20260501184042 | 14 | 51 | 9.7 | 22.5 | 0.00 | 0.00 | 0.00 | 35 | 944.0 |
| 20260501183034 | 15 | 23 | 8.0 | 19.3 | 0.00 | 0.00 | 0.00 | 36 | 944.0 |
| 20260501182027 | 14 | 110 | 6.4 | 16.1 | 0.00 | 0.00 | 0.00 | 36 | 944.0 |
| 20260501181019 | 13 | 36 | 11.3 | 22.5 | 0.00 | 0.00 | 0.00 | 36 | 944.0 |
| 20260501180044 | 13 | 59 | 6.4 | 12.9 | 0.00 | 0.00 | 0.00 | 37 | 944.1 |
| 20260501175037 | 13 | 195 | 4.8 | 8.0 | 0.00 | 0.00 | 0.00 | 37 | 944.1 |
| 20260501174029 | 14 | 124 | 4.8 | 8.0 | 0.00 | 0.00 | 0.00 | 38 | 944.1 |
| 20260501173020 | 14 | 96 | 4.8 | 11.3 | 0.00 | 0.00 | 0.00 | 36 | 944.2 |
| 20260501172046 | 13 | 85 | 4.8 | 11.3 | 0.00 | 0.00 | 0.00 | 37 | 944.3 |
| 20260501171037 | 13 | 38 | 8.0 | 12.9 | 0.00 | 0.00 | 0.00 | 37 | 944.3 |
| 20260501170030 | 13 | 86 | 8.0 | 17.7 | 0.00 | 0.00 | 0.00 | 38 | 944.2 |
| 20260501165022 | 13 | 330 | 8.0 | 16.1 | 0.00 | 0.00 | 0.00 | 37 | 944.2 |
| 20260501164047 | 12 | 60 | 8.0 | 16.1 | 0.00 | 0.00 | 0.00 | 37 | 944.2 |
| 20260501163038 | 13 | 23 | 6.4 | 12.9 | 0.00 | 0.00 | 0.00 | 38 | 944.3 |
| 20260501162032 | 12 | 220 | 4.8 | 11.3 | 0.00 | 0.00 | 0.00 | 39 | 944.2 |
| 20260501161024 | 12 | 58 | 8.0 | 24.1 | 0.00 | 0.00 | 0.00 | 38 | 944.2 |
| 20260501160017 | 12 | 60 | 8.0 | 16.1 | 0.00 | 0.00 | 0.00 | 38 | 944.2 |
| 20260501155040 | 11 | 73 | 6.4 | 16.1 | 0.00 | 0.00 | 0.00 | 38 | 944.1 |
| 20260501154034 | 11 | 240 | 6.4 | 11.3 | 0.00 | 0.00 | 0.00 | 44 | 944.2 |
| 20260501153025 | 10 | 244 | 4.8 | 8.0 | 0.00 | 0.00 | 0.00 | 45 | 944.2 |